This demonstration page uses our WeatherBlox Daily Observations layout. Learn more.

Left ArrowRight Arrow

Hourly Observations for January 3, 2015

Temp ( °F °C ) Dew Point ( °F °C ) Humidity (%) Winds ( mph kmh ) Pressure ( in mb ) Visibility ( mi km ) Precip ( " mm )
12:53 am 00:53 Cloudy 49 9.4 45 7.2 86 86 Calm 30.27 1025 10 16 0.00 0.00
1:35 am 01:35 Cloudy 49 9.4 44 6.7 83 83 ENE 5 7 30.27 1025 10 16 0.00 0.00
1:53 am 01:53 Cloudy 49 9.4 44 6.7 83 83 E 5 7 30.25 1024 10 16 0.00 0.00
2:53 am 02:53 Cloudy with Light Rain 49 9.4 44 6.7 83 83 E 7 11 30.25 1024 8 13 0.00 0.03
3:13 am 03:13 Cloudy with Mist and Fog 49 9.4 45 7.2 86 86 E 6 9 30.24 1024 5 8 0.00 0.03
3:36 am 03:36 Cloudy with Mist and Fog 48 9 46 8 94 94 ENE 6 9 30.24 1024 3 4 0.00 0.00
3:44 am 03:44 Cloudy with Mist and Fog 48 9 46 8 94 94 E 5 7 30.24 1024 3 5 0.00 0.00
3:53 am 03:53 Cloudy with Mist and Fog 48 8.9 46 7.8 93 93 ESE 5 7 30.24 1024 3 5 0.00 0.03
4:53 am 04:53 Cloudy with Mist and Fog 49 9.4 46 7.8 90 90 ENE 6 9 30.23 1024 3 5 0.01 0.25
5:44 am 05:44 Cloudy with Light Rain 48 9 46 8 94 94 E 6 9 30.24 1024 4 6 0.00 0.00
5:53 am 05:53 Cloudy with Light Rain 49 9.4 47 8.3 93 93 ENE 6 9 30.23 1024 4 6 0.00 0.03
6:41 am 06:41 Cloudy with Mist and Fog 49 9.4 48 8.9 97 97 E 7 11 30.24 1024 3 4 0.01 0.25
6:53 am 06:53 Cloudy with Mist and Fog 49 9.4 47 8.3 93 93 ENE 6 9 30.22 1023 4 6 0.01 0.25
7:50 am 07:50 Cloudy with Mist and Fog 50 10 48 9 94 94 Calm 30.24 1024 4 6 0.00 0.00
7:53 am 07:53 Cloudy with Mist and Fog 50 10 48 8.9 93 93 E 3 6 30.24 1024 4 6 0.01 0.25
8:53 am 08:53 Cloudy with Light Rain 50 10 48 8.9 93 93 E 7 11 30.24 1024 4 6 0.00 0.03
9:53 am 09:53 Cloudy with Mist and Fog 51 10.6 49 9.4 92 92 ESE 7 11 30.24 1024 5 8 0.00 0.03
10:12 am 10:12 Cloudy with Mist and Fog 52 11 48 9 88 88 ESE 5 7 30.24 1024 5 8 0.00 0.00
10:53 am 10:53 Cloudy with Light Rain 52 11.1 49 9.4 89 89 E 6 9 30.23 1024 6 10 0.01 0.25
11:53 am 11:53 Cloudy 52 11.1 50 10 93 93 E 7 11 30.21 1023 9 14 0.00 0.03
12:53 pm 12:53 Cloudy 52 11.1 50 10 93 93 E 8 13 30.18 1022 7 11 0.00 0.00
1:53 pm 13:53 Cloudy with Mist and Fog 53 11.7 51 10.6 93 93 E 6 9 30.15 1021 5 8 0.00 0.03
2:19 pm 14:19 Cloudy with Mist and Fog 53 11.7 51 10.6 93 93 E 6 9 30.18 1022 4 6 0.00 0.00
2:53 pm 14:53 Cloudy with Mist and Fog 53 11.7 51 10.6 93 93 E 5 7 30.14 1021 3 4 0.00 0.03
3:08 pm 15:08 Cloudy with Mist and Fog 54 12 52 11 94 94 E 5 7 30.15 1021 2 3 0.00 0.00
3:53 pm 15:53 Cloudy with Mist and Fog 53 11.7 52 11.1 96 96 ENE 6 9 30.12 1020 2 3 0.00 0.00
4:17 pm 16:17 Cloudy with Mist and Fog 54 12.2 52 11.1 93 93 ENE 6 9 30.15 1021 3 5 0.00 0.00
4:27 pm 16:27 Cloudy with Light Rain 54 12.2 52 11.1 93 93 NE 3 6 30.18 1022 2 3 0.00 0.03
4:34 pm 16:34 Cloudy with Light Rain 54 12 52 11 94 94 ENE 3 6 30.18 1022 2 2 0.00 0.00
4:53 pm 16:53 Cloudy with Light Rain 54 12.2 52 11.1 93 93 ENE 6 9 30.12 1020 2 3 0.02 0.51
5:04 pm 17:04 Cloudy with Light Rain 54 12 52 11 94 94 ENE 6 9 30.15 1021 4 6 0.00 0.00
5:53 pm 17:53 Cloudy with Mist and Fog 54 12.2 52 11.1 93 93 VRB 5 7 30.11 1020 4 6 0.00 0.03
6:53 pm 18:53 Cloudy with Mist and Fog 54 12.2 53 11.7 97 97 SE 3 6 30.11 1020 4 6 0.00 0.00
7:53 pm 19:53 Cloudy with Mist and Fog 54 12.2 53 11.7 97 97 E 3 6 30.10 1019 3 5 0.00 0.00
8:53 pm 20:53 Cloudy with Light Rain 55 12.8 53 11.7 93 93 SE 6 9 30.10 1019 4 6 0.00 0.03
9:53 pm 21:53 Cloudy with Light Rain 57 13.9 56 13.3 96 96 S 8 13 30.09 1019 5 8 0.03 0.76
10:53 pm 22:53 Cloudy with Light Rain 59 15 57 13.9 93 93 SE 8 13 30.05 1018 6 10 0.10 2.54
11:53 pm 23:53 Cloudy with Light Rain 60 15.6 59 15 96 96 S 3 6 30.06 1018 8 13 0.08 2.03

Powered by AerisWeather